Theta_e
304 304 305 305 304 304 303 302 299 300 301 301 299 302 298 297 298 305 306 306 307 305 306 314 315 314 315 316 316 316 317 317 317 317 317 317 317 319 320 320 319 320 321 322 324
304 304 304 304 303 303 303 299 296 299 301 298 297 300 298 297 306 308 308 305 307 307 310 312 315 316 316 317 317 316 317 317 317 316 316 316 317 318 319 320 320 320 320 320 323
303 303 303 303 303 303 301 296 296 296 296 297 299 302 300 300 308 307 308 304 305 306 312 311 312 315 314 316 317 317 318 319 316 315 315 316 316 317 317 318 319 320 320 320 321
303 303 303 302 303 301 296 296 296 296 297 298 302 304 301 306 303 312 308 302 306 312 313 312 314 313 313 314 316 317 317 317 317 316 316 316 317 317 317 317 318 319 319 320 321
302 302 300 301 301 298 296 296 296 297 298 299 302 305 305 304 303 301 299 301 307 314 312 311 312 314 315 316 316 317 317 317 316 317 317 316 317 317 318 318 318 318 319 320 321
301 301 301 300 298 296 295 295 296 298 300 302 304 304 306 304 299 301 301 302 302 302 309 312 311 312 313 314 314 316 316 317 317 317 317 317 317 317 318 318 318 318 319 319 321
301 301 301 296 296 294 295 295 297 301 304 303 303 306 307 305 300 303 307 309 309 309 307 307 311 312 314 314 314 314 314 316 316 316 317 317 319 320 320 320 319 319 320 321 321
300 300 299 295 294 295 295 295 299 304 301 303 304 305 306 300 303 308 308 309 307 309 308 307 305 306 307 311 314 314 315 317 318 317 317 317 321 321 320 321 321 321 321 321 321
300 299 297 293 292 294 294 295 301 302 299 305 307 305 306 305 301 301 302 303 303 307 307 307 306 306 308 309 311 312 312 313 315 317 318 319 320 321 320 320 321 321 321 321 321
300 298 294 292 293 294 294 297 298 300 300 304 306 304 304 302 302 301 302 302 304 306 307 307 308 308 307 308 309 311 312 312 312 313 316 318 319 319 320 320 320 321 321 321 321
299 297 292 292 294 294 298 300 302 304 299 301 300 301 302 301 302 303 302 303 304 305 305 307 307 306 306 307 307 309 310 311 311 313 316 317 318 318 319 319 320 320 320 321 321
299 293 292 293 294 295 298 300 298 298 301 300 301 302 301 301 302 303 301 303 304 304 304 304 306 307 306 306 306 308 309 310 310 310 312 313 313 314 315 317 319 319 319 319 319
296 292 292 293 294 298 297 298 298 298 301 299 301 303 301 300 300 303 302 303 304 304 304 304 305 306 306 308 307 307 308 308 309 310 310 311 313 313 314 315 315 316 316 317 317
295 292 292 293 296 297 297 297 297 299 300 298 301 302 300 301 301 302 302 305 305 304 304 305 304 303 304 308 308 308 308 308 309 309 311 312 313 313 314 314 314 315 317 318 320
294 293 292 292 297 297 297 297 299 302 298 297 299 299 301 301 302 303 302 304 305 305 304 305 305 305 305 305 308 308 308 309 310 310 311 312 312 312 312 312 316 316 319 323 326
293 293 293 296 298 297 297 298 300 301 299 297 298 300 301 301 302 302 302 304 306 306 305 305 305 305 305 306 306 308 309 309 310 310 312 311 312 312 313 315 316 323 325 326 326
293 293 296 298 299 297 298 299 300 297 297 297 298 300 301 301 301 301 304 307 308 309 307 307 304 305 305 305 306 307 309 308 308 310 310 310 311 312 313 317 320 325 326 326 327
293 294 296 296 296 296 298 300 299 296 297 298 299 300 300 300 301 302 304 306 303 305 307 309 307 306 306 305 305 307 308 308 307 309 310 312 312 313 314 316 324 325 325 325 328
294 296 297 297 296 298 300 300 297 298 298 300 301 300 300 301 302 303 304 306 305 306 308 308 311 307 307 305 306 306 309 308 307 309 312 312 313 313 316 315 324 325 325 326 329
297 298 298 296 296 299 301 299 298 298 299 300 301 301 301 301 303 304 305 305 304 303 305 308 309 309 311 305 306 306 307 307 307 308 308 309 312 315 317 321 325 326 325 326 329
296 300 298 297 298 300 301 299 299 299 300 301 301 301 301 302 303 304 306 305 303 303 304 307 311 311 309 305 304 307 310 308 307 309 309 311 313 316 321 324 326 326 324 326 327
296 300 297 297 299 299 300 299 298 300 300 301 301 302 302 303 304 303 306 304 303 303 305 307 309 313 312 313 312 307 309 310 310 310 310 312 313 321 321 324 326 324 323 323 324
297 297 296 297 300 299 299 299 299 299 299 301 302 302 303 303 303 302 303 303 303 303 306 306 310 311 312 314 314 315 308 311 312 311 311 314 312 323 324 324 325 324 323 322 322
297 299 297 298 298 298 299 299 299 297 298 300 301 302 301 302 302 302 303 302 303 302 305 305 311 311 311 314 315 315 315 314 309 313 312 312 313 323 323 325 325 324 324 322 321
297 297 298 300 299 298 298 298 298 298 297 298 301 301 300 301 302 301 302 302 302 302 303 304 306 310 309 309 308 313 316 315 315 310 312 311 311 316 320 323 325 324 324 323 322
297 296 296 296 297 298 297 297 297 297 297 298 300 299 299 301 302 302 302 302 302 301 303 304 305 307 306 308 309 309 314 314 315 316 313 312 311 313 319 322 324 323 322 322 320
295 295 297 296 296 297 297 296 297 296 296 298 299 297 299 301 301 300 301 302 303 303 304 305 305 304 307 307 310 313 314 313 312 314 316 317 315 320 319 322 323 322 321 319 316
Wind_Speed
11 12 14 15 16 17 19 21 22 22 20 21 22 24 24 24 27 12 10 6 8 7 2 6 9 11 12 11 10 6 11 16 19 18 13 3 10 6 2 6 3 2 2 3 5
11 12 13 14 16 17 19 21 23 22 21 20 20 23 24 22 20 9 2 9 9 5 7 12 12 12 9 13 8 13 15 22 17 14 11 6 10 5 8 13 9 7 4 5 5
12 13 14 15 17 19 20 21 24 23 22 21 21 21 20 16 7 4 1 7 9 1 5 8 6 11 16 12 15 13 23 17 13 14 16 15 14 12 12 16 14 13 5 8 8
13 13 14 16 18 19 22 24 24 23 21 20 20 18 13 6 8 3 4 11 6 3 6 6 7 12 12 20 18 17 18 18 18 17 14 17 17 15 16 17 15 12 13 13 13
12 14 16 18 19 21 23 24 25 25 23 18 14 12 6 5 5 4 8 9 6 3 9 10 12 13 16 11 18 19 19 18 16 19 19 17 20 21 23 16 19 16 16 17 15
12 14 15 18 20 23 25 27 27 22 15 10 9 4 3 7 1 8 13 14 12 10 9 10 11 13 14 15 17 13 14 17 17 18 20 22 24 22 18 13 22 19 19 19 17
12 13 16 17 21 24 27 26 24 13 8 9 7 3 5 7 8 10 8 8 6 9 14 13 10 11 5 13 13 14 18 19 19 19 19 15 25 27 21 22 25 24 20 19 18
10 13 15 18 23 24 27 29 11 6 9 8 3 2 4 4 10 13 14 6 10 10 10 15 16 12 14 13 15 13 17 17 13 11 19 18 25 3 2 10 14 15 17 15 16
11 13 15 20 23 24 27 23 5 4 8 5 1 5 3 5 24 21 20 21 25 12 7 6 7 12 14 15 16 17 19 21 15 10 13 18 19 15 6 12 16 13 13 12 13
10 12 16 20 18 22 26 6 4 4 8 3 1 8 4 15 25 24 18 17 12 15 11 6 6 11 16 16 20 16 20 18 22 17 17 22 23 17 14 12 12 12 13 14 16
9 12 16 18 15 20 21 3 3 3 10 5 10 4 8 18 12 14 19 20 11 12 16 13 10 21 21 23 26 22 24 22 18 7 13 17 21 20 18 20 18 18 20 19 18
8 12 15 16 11 18 14 7 6 2 6 3 5 5 8 8 15 11 22 10 14 14 15 15 24 29 19 21 22 24 26 28 21 17 14 21 28 25 23 22 21 20 21 22 22
8 12 15 12 8 10 18 11 2 1 3 4 3 2 5 19 15 9 22 16 15 15 11 19 37 12 23 18 21 24 25 20 21 16 17 20 31 25 26 27 24 23 24 21 18
7 11 14 7 3 6 4 8 6 5 2 7 5 3 9 17 4 15 18 16 15 17 16 17 19 21 24 25 23 23 20 19 18 13 16 14 22 15 4 8 11 14 12 10 9
7 10 12 13 3 3 7 11 6 4 5 6 4 6 16 15 14 3 19 13 21 22 21 33 23 11 18 34 19 25 17 15 15 15 16 21 11 11 11 13 11 8 5 6 4
6 7 8 5 3 4 9 9 3 4 0 4 7 15 20 14 11 10 19 14 13 22 25 32 26 25 24 19 24 18 12 11 10 10 14 20 16 11 12 10 7 5 5 1 3
5 6 6 4 3 8 8 3 4 2 3 5 8 13 18 15 12 16 16 16 11 13 16 26 28 28 27 25 21 25 18 10 10 10 17 9 13 18 4 6 7 7 5 3 5
3 5 7 5 4 4 3 1 1 2 4 8 9 17 6 12 12 15 15 9 13 16 15 16 21 22 19 28 26 23 25 12 19 13 14 12 10 9 13 14 9 9 5 4 6
5 6 3 7 4 4 2 1 2 2 2 7 14 8 10 13 11 10 14 4 4 6 7 11 11 22 18 25 25 26 22 28 18 13 8 12 16 8 7 15 14 9 6 4 6
6 6 5 3 4 3 1 3 1 1 4 3 5 3 14 15 12 15 8 5 10 8 4 5 14 15 8 15 22 24 23 21 14 19 20 18 18 8 14 17 16 10 7 5 8
4 3 3 4 3 0 1 2 2 1 2 2 5 9 12 12 13 17 6 15 8 24 21 10 7 8 7 10 19 17 16 19 20 16 15 14 12 8 14 17 15 10 7 7 9
2 3 4 4 2 1 3 2 2 2 1 3 6 9 11 13 16 14 8 14 17 20 24 3 6 8 14 4 5 22 21 24 14 23 16 12 7 5 8 16 13 11 10 10 10
2 3 1 2 3 4 3 3 4 3 2 2 4 3 10 14 9 8 15 18 15 23 11 11 6 12 6 6 7 4 18 19 21 15 19 15 10 7 10 13 13 14 12 10 11
2 3 3 1 1 2 2 4 2 3 6 5 8 8 12 13 10 13 20 12 18 20 14 11 6 6 8 16 2 6 2 9 19 15 16 15 15 10 11 14 14 13 11 10 9
0 2 1 5 5 6 4 3 4 2 2 5 5 5 11 7 19 10 20 24 16 10 10 14 9 12 15 19 11 2 12 10 10 20 17 16 15 12 14 12 13 12 10 9 9
3 3 3 4 6 9 5 4 5 3 3 5 9 9 14 15 15 20 23 21 13 13 16 13 8 16 18 9 12 3 4 3 12 14 16 12 19 11 12 9 11 11 11 9 8
3 2 2 5 7 6 6 6 3 2 5 8 8 14 15 16 17 23 23 24 22 21 18 9 7 11 7 14 5 4 9 2 3 3 4 10 3 5 12 12 10 10 9 9 9
Wind_Direction
5 5 3 1 355 350 349 346 345 342 338 335 335 333 340 335 327 324 295 320 295 277 223 184 183 187 199 219 230 247 244 244 237 250 248 227 232 190 233 243 205 234 223 23 14
10 2 359 350 349 346 344 344 343 339 333 331 332 332 342 335 327 310 265 348 352 257 228 199 202 195 204 218 208 223 235 245 250 263 256 255 250 217 227 212 228 242 245 286 330
6 1 357 349 344 341 340 342 341 336 332 330 328 329 343 340 287 87 327 351 1 15 279 237 231 217 237 225 220 223 243 258 245 260 262 259 249 244 253 248 246 247 266 286 293
360 359 352 343 338 339 341 341 341 333 327 327 322 325 346 335 337 73 356 351 343 256 240 238 220 208 230 229 231 250 246 258 263 259 255 256 264 257 246 259 270 275 279 281 273
359 354 348 343 338 341 344 346 338 329 321 319 315 325 346 272 277 336 325 339 349 325 250 240 239 236 240 241 246 239 254 256 256 260 261 267 262 264 258 261 264 265 265 271 267
351 346 345 341 341 344 344 343 333 329 330 327 318 332 268 294 354 336 327 318 302 281 272 244 245 258 275 257 245 269 258 259 254 259 260 261 263 254 250 242 255 256 257 258 255
350 345 343 346 347 348 346 341 336 347 5 339 316 175 242 286 345 339 5 327 332 298 271 244 252 250 297 256 256 267 264 260 248 251 252 255 265 252 252 249 250 254 257 256 255
350 347 347 349 348 346 346 337 341 7 13 8 81 235 281 336 7 8 349 334 343 310 264 266 250 263 261 269 269 255 257 261 247 245 241 233 257 226 223 232 244 244 246 251 245
351 348 351 352 346 343 350 336 23 30 14 27 15 323 31 17 351 324 316 301 306 288 276 263 198 231 240 240 254 241 256 258 250 229 245 218 261 257 301 250 251 248 236 230 245
349 349 354 353 346 350 353 9 23 56 346 244 267 278 64 342 332 332 338 315 288 279 269 221 225 233 226 231 240 240 246 247 256 260 228 255 256 254 252 238 235 248 258 258 259
346 349 356 347 5 5 2 357 313 173 21 8 325 304 314 334 336 337 353 332 295 254 257 224 241 236 232 229 250 256 264 259 261 279 264 261 269 268 263 255 251 254 257 257 255
346 353 352 348 18 30 33 69 55 347 326 343 297 239 286 336 323 340 349 344 329 309 306 248 242 247 259 253 241 244 253 256 265 262 261 276 270 271 267 260 253 254 255 257 258
352 353 356 354 42 35 60 68 30 200 296 331 336 354 330 332 320 277 340 324 305 300 280 257 252 286 246 242 240 238 243 253 260 273 253 267 273 266 257 250 251 251 255 257 260
0 360 5 11 63 353 49 3 342 203 282 32 11 69 340 323 340 312 321 321 287 285 294 276 284 260 255 237 234 246 241 249 253 244 255 236 268 267 200 243 230 240 238 238 249
7 3 9 41 1 24 326 334 324 210 297 19 2 310 338 339 313 8 331 322 295 286 271 257 273 275 255 243 230 250 247 230 230 237 255 252 259 256 262 255 243 228 209 227 263
8 6 15 15 27 340 327 319 232 235 313 7 332 337 337 340 323 318 317 319 278 273 264 267 266 261 253 278 242 236 215 218 220 226 235 239 240 254 237 227 195 152 155 80 4
9 16 48 30 351 326 336 267 236 303 3 354 339 330 323 327 319 330 337 358 20 335 321 298 256 243 240 244 247 217 215 212 209 206 236 219 220 238 245 207 173 160 128 53 18
3 79 74 41 330 348 315 244 161 57 321 340 329 313 307 341 332 331 335 350 341 341 305 327 260 247 235 222 225 216 215 216 214 214 228 176 233 225 214 181 140 134 108 49 36
101 101 67 13 54 3 272 87 78 352 13 318 318 314 326 341 328 323 328 280 320 354 297 311 291 261 247 214 213 210 216 222 242 260 247 206 234 246 209 190 166 152 136 81 58
141 119 49 55 48 326 237 77 138 235 310 325 315 334 321 332 326 341 319 293 315 319 266 287 296 269 284 211 219 225 208 218 226 229 226 233 226 240 177 171 178 166 135 101 76
145 137 71 46 346 70 143 98 276 279 270 266 295 295 307 321 315 321 278 298 312 324 325 299 267 283 186 202 196 202 220 213 222 223 233 234 216 207 177 182 172 146 124 95 76
167 128 167 360 194 154 157 151 289 263 164 268 275 273 279 309 303 304 274 300 314 332 323 334 293 288 264 350 346 224 211 202 209 217 236 257 221 123 186 182 163 143 119 97 89
125 107 93 260 196 176 144 225 245 253 340 287 277 279 296 305 309 299 297 313 322 332 327 335 314 339 304 180 46 319 232 216 222 235 216 222 216 113 140 151 159 149 138 121 106
149 136 138 244 218 169 183 215 223 234 279 250 278 280 320 306 290 296 299 313 321 320 330 337 292 309 319 313 88 161 237 284 242 228 229 216 213 151 162 158 156 151 154 134 106
112 152 145 168 182 198 216 199 240 277 229 270 244 270 334 302 314 301 315 314 322 320 321 335 290 315 321 318 335 213 166 202 254 240 236 232 234 186 184 176 160 154 150 143 104
146 171 178 146 159 199 193 217 232 237 250 262 257 319 311 294 295 303 311 306 308 308 325 315 284 321 313 278 334 150 138 198 182 236 246 252 249 234 159 143 157 151 140 119 91
142 129 207 153 187 206 217 228 210 270 258 256 293 307 297 302 311 295 286 279 273 282 296 281 303 323 297 336 322 93 354 354 192 162 279 216 248 173 196 176 157 152 124 96 76